Location: Brabourne
(51.1333°N, 1.0000°E)
Time: 06:51:12
(UTC+00:00)

Cosmos 1898 Rocket - Pass Details

Date: 20 June 2021
Orbit: 754 x 783 km, 74.0° (Epoch: 31 July)

Event Time Altitude Azimuth Distance (km) Brightness Sun altitude
Rises 00:24:22 0° 335° (NNW) 3,254 7.8 -15.2°
Reaches altitude 10° 00:26:46 10° 336° (NNW) 2,318 6.9 -15.2°
Maximum altitude 00:32:02 83° 65° (ENE) 775 3.5 -15.0°
Enters shadow 00:36:08 17° 153° (SSE) 1,861 5.0 -14.9°
